{"data":{"norad_id":64492,"intl_designator":"2025-133W","name":"STARLINK-34522","alt_names":[],"object_type":"PAYLOAD","status":"ACTIVE","operator":null,"country":"US","launch_date":"2025-06-23","launch_site_code":"AFETR","launch_vehicle":null,"mission":null,"orbit_class":"UNKNOWN","rcs_meters":null,"size_class":null,"mass_kg":null,"dimensions":null,"purposes":["comms"],"wikipedia_slug":null,"has_3d_model":false,"image_url":null,"decayed_at":null,"tle_current":{"epoch":"2026-09-20T19:05:40.976160Z","epoch_age_seconds":106153,"freshness":"FRESH","line1":"1 64492U 25133W   26263.79561315  .00017437  00000+0  52590-3 0  9990","line2":"2 64492  53.1592 284.6117 0001240  90.3458 269.7687 15.34407071 71147","mean_motion":15.34407071,"eccentricity":0.000124,"inclination_deg":53.1592,"raan_deg":284.6117,"arg_perigee_deg":90.3458,"mean_anomaly_deg":269.7687,"bstar":0.0005259,"rev_number":7114,"period_min":93.847325603207,"perigee_km":461.83396220192,"apogee_km":463.53048536942,"semimajor_km":6840.8192237857,"source":"CELESTRAK","updated_at":"2026-09-21T09:00:35.362279Z"}}}